Powrót do katalogu

TOMORROW-S1

AktywnyPogodaSSO
NORAD 60479·PAYLOAD·🇺🇸 United States

Wystrzelony Aug 16, 2024 z Vandenberg Space Force Base

Loading…

Następne Przeloty (najbliższe 24 godziny)

TLE

ŚwieżeSource: Space-Track

Epoka: Sep 13, 2026, 22:58 UTC

1 60479U 24149M   26256.95734806  .00006556  00000-0  20286-3 0  9992
2 60479  97.3698 337.1923 0001013 309.0135  51.1017 15.33821030115697

Śledź TOMORROW-S1 w czasie rzeczywistym z AllMySat

Download on the App Store